Cloud_Cover
100 100 100 100 100 100 100 93 100 100 100 100 100 100 90 94 100 92 100 97 95 96 96 81 82 88 97 100 100 82 100 100 100 7 61 5 20 20 6 3 0 0 1 2 4
100 100 100 100 100 100 100 84 100 100 100 100 100 100 100 100 99 97 99 100 100 100 100 95 62 84 47 100 100 100 100 100 100 36 53 12 37 56 13 5 0 0 1 4 5
100 100 100 100 100 100 100 95 100 100 100 97 94 100 78 100 100 100 99 100 100 100 100 100 100 67 46 100 100 100 100 100 100 100 100 100 25 80 5 5 5 5 2 5 5
100 97 94 100 100 100 100 100 100 100 100 100 97 100 100 100 100 100 100 99 100 100 100 100 100 80 81 100 100 98 100 100 100 100 100 100 38 30 20 5 5 5 5 5 5
100 100 100 100 100 100 100 100 100 100 100 100 82 98 82 85 100 100 100 100 100 100 100 100 100 100 74 100 100 100 100 100 100 100 100 100 26 25 51 5 5 5 5 4 5
100 100 100 100 100 100 100 100 100 100 100 100 100 100 97 32 100 100 100 100 100 100 100 100 100 100 100 100 100 100 100 100 100 100 100 100 18 5 5 5 5 5 5 5 5
100 100 100 100 100 100 100 100 100 100 100 100 100 100 100 84 79 89 100 100 100 100 100 100 100 92 100 100 100 100 100 100 100 100 100 100 60 18 93 38 5 5 5 5 5
100 100 100 100 100 100 100 100 100 100 100 100 100 100 100 100 51 99 76 99 100 100 100 100 100 100 100 100 100 100 100 100 100 100 100 100 90 83 100 86 5 5 5 5 5
100 100 100 100 100 100 100 100 97 100 100 100 100 100 100 68 92 67 100 100 100 100 100 100 100 100 100 98 100 100 100 100 100 100 100 100 100 100 90 98 5 5 15 40 28
100 100 100 100 100 100 100 100 100 100 100 100 100 100 100 100 95 100 64 94 100 100 100 100 100 100 100 100 100 100 100 100 100 100 100 100 100 100 100 100 100 44 5 27 91
100 100 100 100 100 100 100 100 100 100 100 100 100 100 100 96 100 59 82 46 100 100 100 91 100 100 100 100 100 100 96 100 100 100 100 100 100 100 100 100 100 100 79 5 10
100 100 100 100 100 100 100 100 100 100 100 100 100 100 100 100 100 98 99 100 68 94 100 96 94 100 100 92 100 100 100 100 100 100 100 100 100 100 96 96 100 100 100 100 5
100 100 100 100 100 100 100 100 100 100 100 100 100 100 100 100 100 100 84 87 100 95 100 93 97 86 100 100 100 100 100 100 100 100 100 100 100 100 100 99 97 100 96 57 6
100 100 100 100 100 100 100 100 100 100 100 100 100 100 100 100 100 100 100 97 100 100 100 100 98 97 64 100 100 100 100 100 100 100 100 100 100 100 100 100 100 89 46 11 5
100 100 100 100 100 100 100 100 100 100 100 100 100 100 100 100 100 100 100 100 100 100 100 100 100 100 100 100 38 95 100 100 100 100 100 100 100 100 100 99 99 34 24 5 5
100 100 100 100 100 100 100 100 100 100 100 100 100 100 100 100 100 100 100 100 100 100 100 84 94 100 100 100 66 36 66 100 99 88 100 100 100 100 98 93 46 68 57 10 47
100 100 100 100 100 100 100 100 100 100 100 100 100 100 100 100 100 100 100 100 100 100 100 100 100 100 100 100 88 90 93 43 71 100 100 100 98 100 100 92 95 72 54 98 52
100 100 100 100 100 100 100 100 100 100 100 100 100 100 100 100 100 100 100 100 100 100 100 100 100 98 100 100 100 100 81 49 88 100 96 97 100 100 100 100 50 5 85 98 99
99 100 100 100 100 100 100 100 100 100 100 100 100 100 100 100 100 100 100 100 100 100 100 100 73 92 100 100 100 100 100 100 54 76 92 100 100 100 99 34 80 99 100 100 100
62 93 98 94 100 100 100 100 100 65 100 100 100 100 100 100 100 100 100 100 100 100 100 100 100 100 100 100 100 100 100 100 77 100 100 100 100 100 99 88 91 100 100 100 100
100 90 54 61 94 100 98 95 55 100 97 100 100 100 100 100 100 100 100 100 100 100 100 97 100 97 100 100 100 100 100 100 100 92 100 100 100 100 100 100 100 100 100 100 100
100 97 100 99 100 100 100 25 100 44 100 97 40 18 100 100 100 100 100 100 100 100 100 100 100 80 99 100 100 100 100 100 100 100 65 98 100 100 100 100 100 100 100 100 92
100 88 100 100 99 100 100 100 83 88 99 97 86 99 84 100 100 100 100 100 100 100 100 100 100 100 100 100 100 100 100 100 100 100 100 95 100 100 100 100 100 100 100 96 7
97 96 100 100 99 93 100 71 24 74 94 90 76 20 13 37 100 100 100 100 100 100 100 100 100 100 100 100 100 100 100 100 100 100 100 97 100 100 100 100 100 100 100 100 88
87 47 15 91 100 60 67 100 100 100 92 72 53 12 29 99 97 93 100 100 100 100 100 100 100 84 80 99 100 100 100 100 100 100 99 100 100 100 100 100 58 100 100 100 100
87 90 96 99 21 100 100 100 100 100 38 27 70 85 5 14 99 83 5 27 88 100 100 100 100 100 100 100 100 80 100 100 100 100 100 100 100 100 100 100 100 100 100 100 100
19 9 7 21 98 77 89 100 78 5 53 96 87 97 5 9 20 98 88 100 100 100 100 100 100 100 100 100 100 100 100 100 100 100 100 100 100 100 100 100 100 100 100 100 100